Location: Amsterdam
(30.7274°N, 84.4357°W)
Time: 07:54:12
(UTC+00:00)

Transit 2A Rocket - Pass Details

Date: 25 February 2026
Orbit: 583 x 900 km, 66.7° (Epoch: 12 March)

Event Time Altitude Azimuth Distance (km) Brightness Sun altitude
Rises 20:01:09 0° 229° (SW) 3,458 9.3 39.6°
Reaches altitude 10° 20:03:52 10° 238° (WSW) 2,546 8.9 39.2°
Maximum altitude 20:09:12 33° 301° (WNW) 1,454 7.0 38.3°
Drops below altitude 10° 20:14:35 10° 5° (N) 2,564 7.4 37.5°
Sets 20:17:20 0° 15° (NNE) 3,486 8.0 37.1°
